EI4HQ Weather Reports


Display with metric or nautical units.
time (UTC)temp
F
wind
direction
speed
MPH
gust
MPH
rain 1hr
in
rain 24hr
in
rain mn
in
humidity
%
barometer
mb
20260905140003 62 156 7.0 11.0 0.00 0.00 0.00 74 1023.8
20260905135403 62 161 8.0 12.0 0.00 0.00 0.00 74 1024.0
20260905134503 62 173 10.0 16.0 0.00 0.00 0.00 72 1024.2
20260905133603 63 170 11.0 20.0 0.00 0.00 0.00 71 1024.2
20260905132703 63 173 11.0 17.0 0.00 0.00 0.00 71 1024.2
20260905131803 63 171 9.0 14.0 0.00 0.00 0.00 71 1024.3
20260905130903 63 159 10.0 15.0 0.00 0.00 0.00 73 1024.3
20260905130003 62 156 11.0 16.0 0.00 0.00 0.00 73 1024.4
20260905125403 62 157 11.0 16.0 0.00 0.00 0.00 73 1024.3
20260905124503 62 159 10.0 15.0 0.00 0.00 0.00 73 1024.4
20260905123603 62 155 9.0 15.0 0.00 0.00 0.00 72 1024.3
20260905122703 62 156 9.0 14.0 0.00 0.00 0.00 70 1024.3
20260905121803 62 153 10.0 15.0 0.00 0.00 0.00 70 1024.2
20260905120903 63 154 10.0 15.0 0.00 0.00 0.00 70 1024.2
20260905120003 63 155 11.0 16.0 0.00 0.00 0.00 69 1024.2
20260905115403 63 155 11.0 16.0 0.00 0.00 0.00 68 1024.1
20260905114503 64 152 10.0 15.0 0.00 0.00 0.00 68 1024.1
20260905113603 63 150 10.0 15.0 0.00 0.00 0.00 69 1024.1
20260905112703 63 149 11.0 16.0 0.00 0.00 0.00 68 1024.2
20260905111803 64 148 11.0 16.0 0.00 0.00 0.00 69 1024.1
20260905110903 63 147 11.0 16.0 0.00 0.00 0.00 70 1024.2
20260905110003 63 146 10.0 14.0 0.00 0.00 0.00 69 1024.3
20260905105403 63 148 10.0 14.0 0.00 0.00 0.00 69 1024.3
20260905104503 64 150 9.0 15.0 0.00 0.00 0.00 67 1024.3
20260905103603 64 155 8.0 13.0 0.00 0.00 0.00 68 1024.5
20260905102703 63 151 9.0 13.0 0.00 0.00 0.00 68 1024.3
20260905101803 62 152 8.0 13.0 0.00 0.00 0.00 72 1024.3
20260905100903 62 157 8.0 14.0 0.00 0.00 0.00 71 1024.3
20260905100003 62 154 8.0 13.0 0.00 0.00 0.00 72 1024.2
20260905095403 62 148 6.0 11.0 0.00 0.00 0.00 71 1024.3
20260905094503 63 143 4.0 7.0 0.00 0.00 0.00 70 1024.3
20260905093603 63 145 3.0 5.0 0.00 0.00 0.00 71 1024.5
20260905092703 63 143 3.0 5.0 0.00 0.00 0.00 73 1024.1
20260905091803 62 147 3.0 6.0 0.00 0.00 0.00 72 1024.0
20260905090903 62 154 3.0 5.0 0.00 0.00 0.00 71 1024.0
20260905090003 62 167 2.0 5.0 0.00 0.00 0.00 72 1024.0
20260905085403 61 168 1.0 4.0 0.00 0.00 0.00 73 1024.0
20260905084503 60 182 0.0 3.0 0.00 0.00 0.00 74 1024.0
20260905083603 60 183 1.0 3.0 0.00 0.00 0.00 78 1024.0
20260905082703 59 163 2.0 4.0 0.00 0.00 0.00 78 1023.9
20260905081803 58 150 0.0 2.0 0.00 0.00 0.00 80 1023.8
20260905080903 57 168 2.0 3.0 0.00 0.00 0.00 81 1023.7
20260905080003 57 162 2.0 4.0 0.00 0.00 0.00 82 1023.8
20260905075403 56 151 2.0 4.0 0.00 0.00 0.00 83 1023.8
20260905074503 56 191 1.0 3.0 0.00 0.00 0.00 84 1023.8
20260905073603 55 239 0.0 1.0 0.00 0.00 0.00 84 1023.8
20260905072703 54 239 0.0 1.0 0.00 0.00 0.00 84 1023.7
20260905071803 54 239 0.0 1.0 0.00 0.00 0.00 84 1023.9
20260905070903 54 0 0.0 0.0 0.00 0.00 0.00 83 1023.8
20260905070003 53 239 0.0 1.0 0.00 0.00 0.00 82 1023.7
20260905065403 53 249 1.0 4.0 0.00 0.00 0.00 82 1023.7
20260905064503 53 309 1.0 3.0 0.00 0.00 0.00 81 1023.6
20260905063603 54 274 1.0 3.0 0.00 0.00 0.00 80 1023.6
20260905062703 54 263 0.0 2.0 0.00 0.00 0.00 80 1023.5
20260905061803 54 257 2.0 6.0 0.00 0.00 0.00 79 1023.5
20260905060903 54 249 3.0 5.0 0.00 0.00 0.00 79 1023.5
20260905060003 55 246 3.0 5.0 0.00 0.00 0.00 79 1023.5
20260905055403 55 241 2.0 6.0 0.00 0.00 0.00 79 1023.5
20260905054503 55 242 2.0 4.0 0.00 0.00 0.00 78 1023.3
20260905053603 55 255 2.0 5.0 0.00 0.00 0.00 78 1023.2
20260905052703 55 262 2.0 5.0 0.00 0.00 0.00 78 1023.1
20260905051803 55 258 2.0 7.0 0.00 0.00 0.00 78 1023.1
20260905050903 56 250 2.0 7.0 0.00 0.00 0.00 78 1023.1
20260905050003 56 254 3.0 5.0 0.00 0.00 0.00 77 1023.1
20260905045403 56 257 3.0 6.0 0.00 0.00 0.00 78 1023.1
20260905044503 56 262 3.0 7.0 0.00 0.00 0.00 77 1023.1
20260905043603 56 258 3.0 5.0 0.00 0.00 0.00 77 1023.2
20260905042703 56 256 3.0 7.0 0.00 0.00 0.00 77 1023.1
20260905041803 55 257 3.0 8.0 0.00 0.00 0.00 77 1023.1
20260905040903 55 255 3.0 7.0 0.00 0.00 0.00 77 1023.0
20260905040003 55 255 2.0 7.0 0.00 0.00 0.00 77 1023.0
20260905035403 55 254 3.0 7.0 0.00 0.00 0.00 77 1022.9
20260905034503 55 257 4.0 8.0 0.00 0.00 0.00 77 1022.9
20260905033603 55 260 4.0 9.0 0.00 0.00 0.00 77 1022.9
20260905032703 55 255 3.0 6.0 0.00 0.00 0.00 77 1022.9
20260905031803 55 262 3.0 8.0 0.00 0.00 0.00 77 1022.8
20260905030903 55 264 3.0 7.0 0.00 0.00 0.00 77 1022.7
20260905030003 55 263 3.0 7.0 0.00 0.00 0.00 77 1022.7
20260905025403 55 261 2.0 7.0 0.00 0.00 0.00 77 1022.6
20260905024503 56 266 3.0 7.0 0.00 0.00 0.00 77 1022.7
20260905023603 56 257 3.0 6.0 0.00 0.00 0.00 77 1022.7
20260905022703 56 262 3.0 5.0 0.00 0.00 0.00 77 1022.6
20260905021803 56 269 3.0 7.0 0.00 0.00 0.00 77 1022.4
20260905020903 56 263 3.0 7.0 0.00 0.00 0.00 77 1022.4
20260905020003 56 255 2.0 7.0 0.00 0.00 0.00 77 1022.4
20260905015403 56 261 2.0 8.0 0.00 0.00 0.00 77 1022.3
20260905014503 56 273 1.0 5.0 0.00 0.01 0.00 77 1022.3
20260905013603 56 259 2.0 6.0 0.00 0.02 0.00 77 1022.4
20260905012703 56 259 2.0 8.0 0.00 0.02 0.00 77 1022.4
20260905011803 56 268 3.0 8.0 0.00 0.02 0.00 77 1022.4
20260905010903 56 263 2.0 6.0 0.00 0.03 0.00 78 1022.3
20260905010003 56 258 2.0 5.0 0.00 0.04 0.00 77 1022.3
20260905005403 56 263 2.0 5.0 0.00 0.04 0.00 77 1022.3
20260905004503 56 271 3.0 6.0 0.00 0.04 0.00 77 1022.3
20260905003603 55 268 3.0 8.0 0.00 0.04 0.00 78 1022.4
20260905002703 55 267 3.0 8.0 0.00 0.04 0.00 78 1022.3
20260905001803 55 274 3.0 8.0 0.00 0.05 0.00 79 1022.2
20260905000903 55 266 4.0 9.0 0.00 0.05 0.00 79 1022.2
20260905000003 55 258 4.0 8.0 0.00 0.05 0.00 78 1022.2
20260904235403 55 261 4.0 8.0 0.00 0.05 0.00 77 1022.1
20260904234503 55 262 3.0 8.0 0.00 0.05 0.00 77 1022.1
20260904233603 55 254 3.0 6.0 0.00 0.05 0.00 76 1022.2
20260904232703 56 251 3.0 7.0 0.00 0.05 0.00 76 1021.9
20260904231803 56 252 2.0 5.0 0.00 0.05 0.00 76 1021.9
20260904230903 56 268 2.0 6.0 0.00 0.05 0.00 75 1021.8
20260904230003 56 268 3.0 7.0 0.00 0.05 0.00 75 1021.7
20260904225403 56 271 3.0 7.0 0.00 0.05 0.05 75 1021.7
20260904224503 56 274 3.0 7.0 0.00 0.05 0.05 75 1021.7
20260904223603 56 263 3.0 7.0 0.00 0.05 0.05 75 1021.7
20260904222703 56 256 2.0 6.0 0.00 0.05 0.05 74 1021.8
20260904221803 56 251 3.0 6.0 0.00 0.05 0.05 73 1021.8
20260904220903 56 251 2.0 4.0 0.00 0.05 0.05 73 1021.8
20260904220003 57 256 2.0 5.0 0.00 0.05 0.05 73 1021.9
20260904215403 57 252 2.0 6.0 0.00 0.05 0.05 72 1021.9
20260904214503 57 251 3.0 8.0 0.00 0.05 0.05 72 1021.9
20260904213603 57 257 3.0 6.0 0.00 0.05 0.05 72 1021.9
20260904212703 57 265 3.0 5.0 0.00 0.07 0.05 71 1021.8
20260904211803 57 269 3.0 8.0 0.00 0.07 0.05 70 1021.7
20260904210903 57 274 2.0 6.0 0.00 0.07 0.05 70 1021.7
20260904210003 57 272 2.0 7.0 0.00 0.07 0.05 70 1021.5
20260904205403 57 269 1.0 4.0 0.00 0.07 0.05 70 1021.5
20260904204503 57 275 1.0 4.0 0.00 0.07 0.05 70 1021.5
20260904203603 57 286 1.0 7.0 0.00 0.07 0.05 70 1021.5
20260904202703 58 268 0.0 2.0 0.00 0.07 0.05 69 1021.4
20260904201803 58 277 1.0 7.0 0.00 0.08 0.05 68 1021.3
20260904200903 58 271 2.0 9.0 0.00 0.09 0.05 68 1021.2
20260904200003 59 273 3.0 9.0 0.00 0.09 0.05 67 1021.0
20260904195403 59 276 3.0 9.0 0.00 0.10 0.05 67 1020.9
20260904194503 59 281 3.0 11.0 0.00 0.13 0.05 66 1020.9
20260904193603 59 292 3.0 11.0 0.00 0.15 0.05 66 1020.6
20260904192703 60 296 3.0 9.0 0.00 0.17 0.05 66 1020.5
20260904191803 60 283 3.0 11.0 0.00 0.18 0.05 67 1020.3
20260904190903 60 289 3.0 11.0 0.00 0.19 0.05 66 1020.2
20260904190003 60 289 3.0 9.0 0.00 0.20 0.05 65 1020.1
20260904185403 61 284 4.0 9.0 0.00 0.22 0.05 65 1020.0
20260904184503 61 286 3.0 9.0 0.00 0.22 0.05 65 1020.0
20260904183603 61 285 4.0 13.0 0.00 0.23 0.05 64 1019.9
20260904182703 61 288 4.0 9.0 0.00 0.23 0.05 63 1020.0
20260904181803 62 281 6.0 16.0 0.00 0.23 0.05 61 1019.8
20260904180903 62 292 5.0 16.0 0.00 0.23 0.05 59 1019.6
20260904180003 62 306 5.0 16.0 0.00 0.23 0.05 59 1019.6
20260904175403 63 305 4.0 12.0 0.00 0.23 0.05 59 1019.5
20260904174503 63 298 4.0 12.0 0.00 0.23 0.05 58 1019.4
20260904173603 64 291 5.0 15.0 0.00 0.23 0.05 58 1019.3
20260904172703 64 278 4.0 12.0 0.00 0.23 0.05 61 1019.2
20260904171803 64 272 5.0 13.0 0.00 0.23 0.05 62 1019.2
20260904170903 65 280 4.0 10.0 0.00 0.23 0.05 61 1019.1
20260904170003 65 277 5.0 14.0 0.00 0.23 0.05 59 1019.0
20260904165403 65 271 5.0 13.0 0.00 0.23 0.05 62 1018.9
20260904164503 65 272 6.0 15.0 0.00 0.23 0.05 61 1018.7
20260904163603 65 280 6.0 14.0 0.00 0.23 0.05 60 1018.5
20260904162703 65 269 5.0 12.0 0.00 0.23 0.05 62 1018.5
20260904161803 65 273 6.0 13.0 0.00 0.23 0.05 63 1018.5
20260904160903 65 283 4.0 11.0 0.00 0.23 0.05 62 1018.5
20260904160003 65 272 6.0 14.0 0.00 0.23 0.05 65 1018.4
20260904155403 65 267 7.0 15.0 0.00 0.23 0.05 64 1018.2
20260904154503 65 267 5.0 12.0 0.00 0.23 0.05 63 1018.2
20260904153603 65 263 5.0 16.0 0.00 0.23 0.05 64 1018.2
20260904152703 65 272 4.0 13.0 0.00 0.23 0.05 65 1018.3
20260904151803 65 264 6.0 13.0 0.00 0.23 0.05 65 1018.3
20260904150903 65 266 4.0 10.0 0.00 0.23 0.05 66 1018.2
20260904150003 65 270 5.0 13.0 0.00 0.23 0.05 66 1018.3
20260904145403 65 276 4.0 13.0 0.00 0.23 0.05 66 1018.2
20260904144503 65 268 5.0 11.0 0.00 0.23 0.05 64 1018.2
20260904143603 65 272 6.0 14.0 0.00 0.23 0.05 65 1018.0
20260904142703 64 284 4.0 10.0 0.00 0.23 0.05 69 1017.8
20260904141803 63 294 4.0 13.0 0.00 0.23 0.05 67 1017.8
20260904140903 63 279 4.0 13.0 0.00 0.23 0.05 68 1017.8